Rochester, NH

9:39 AM EDT on April 28, 2017 (GMT -0400)
Skyhaven

Weather History for KDAW - May, 2014

Change the Weather History Date:

Saturday, May 17, 2014

  Actual Average (KPSM) Record (KPSM)
Temperature  
Mean Temperature 65 °F -  
Max Temperature 73 °F 62 °F 90 °F (1977)
Min Temperature 54 °F 43 °F 36 °F (1992)
Growing Degree Days 15 (Base 50)    
Moisture  
Dew Point 54 °F    
Average Humidity 80    
Maximum Humidity 100    
Minimum Humidity 30    
Precipitation  
Precipitation 0.47 in - - ()
Sea Level Pressure  
Sea Level Pressure 29.91 in    
Wind  
Wind Speed 9 mph (SSE)    
Max Wind Speed 16 mph    
Max Gust Speed 23 mph    
Visibility 6 miles    
Events Rain , Thunderstorm    
Averages and records for this station are not official NWS values.
T = Trace of Precipitation, MM = Missing Value Source: NWS Daily Summary

Daily Weather History Graph

Daily Weather History Graph

Search for Another Location

Airport or City:

Trip Planner

Search our weather history database for the weather conditions in past years. The results will help you decide how hot, cold, wet, or windy it might be!

Date:

Astronomy

May. 17, 2014 Rise Set
Actual Time 5:17 AM EDT 8:03 PM EDT
Civil Twilight 4:44 AM EDT 8:36 PM EDT
Nautical Twilight 4:02 AM EDT 9:18 PM EDT
Astronomical Twilight 3:15 AM EDT 10:06 PM EDT
Moon 11:00 PM EDT (5/17) 7:57 AM EDT (5/17)
Length of Visible Light 15h 51m
Length of Day
14h 45m
Waning Gibbous, 89% of the Moon is Illuminated
May 17
Waning Gibbous
May 21
Last Quarter
May 28
New
Jun 5
First Quarter
Jun 13
Full

Hourly Weather History & Observations

Time (EDT) Temp. Dew Point Humidity Pressure Visibility Wind Dir Wind Speed Gust Speed Precip Events Conditions
12:10 AM 59.0 °F 57.9 °F 96% 29.99 in 2.0 mi SSE 10.4 mph 18.4 mph N/A   Overcast
12:51 AM 59.0 °F 57.0 °F 93% 29.97 in 2.5 mi SSE 11.5 mph 20.7 mph 0.00 in Rain Light Rain
12:58 AM 59.0 °F 57.0 °F 93% 29.97 in 4.0 mi SSE 12.7 mph 20.7 mph 0.00 in   Overcast
1:16 AM 59.0 °F 57.0 °F 93% 29.96 in 2.5 mi SSE 11.5 mph 19.6 mph 0.00 in   Overcast
1:38 AM 59.0 °F 57.0 °F 93% 29.95 in 4.0 mi South 10.4 mph 19.6 mph 0.00 in   Overcast
1:51 AM 59.0 °F 57.0 °F 93% 29.94 in 3.0 mi SSE 12.7 mph 20.7 mph 0.00 in   Overcast
1:58 AM 57.9 °F 57.0 °F 97% 29.94 in 2.5 mi SSE 11.5 mph 23.0 mph N/A   Overcast
2:09 AM 57.9 °F 57.0 °F 97% 29.94 in 3.0 mi SSE 6.9 mph 21.9 mph N/A   Overcast
2:22 AM 57.9 °F 55.9 °F 93% 29.93 in 2.5 mi SSE 8.1 mph 19.6 mph N/A   Overcast
2:39 AM 57.9 °F 57.0 °F 97% 29.92 in 3.0 mi SSE 9.2 mph 16.1 mph N/A   Overcast
2:51 AM 57.9 °F 57.0 °F 97% 29.91 in 3.0 mi SSE 9.2 mph - N/A   Overcast
3:51 AM 57.9 °F 57.0 °F 97% 29.89 in 3.0 mi SSE 10.4 mph 19.6 mph N/A   Overcast
5:51 AM 59.0 °F 57.0 °F 93% 29.87 in 3.0 mi SSE 10.4 mph 19.6 mph 0.00 in   Overcast
6:07 AM 57.9 °F 57.0 °F 97% 29.87 in 3.0 mi South 11.5 mph 19.6 mph 0.02 in Rain , Thunderstorm Light Thunderstorms and Rain
6:16 AM 57.9 °F 57.0 °F 97% 29.87 in 2.0 mi SSE 11.5 mph - 0.09 in Rain Heavy Rain
6:38 AM 57.9 °F 57.0 °F 97% 29.87 in 1.2 mi SSE 12.7 mph 20.7 mph 0.28 in Rain Heavy Rain
6:46 AM 57.2 °F 57.2 °F 100% 29.86 in 1.0 mi SSE 11.5 mph 20.7 mph 0.38 in Rain Heavy Rain
6:51 AM 59.0 °F 57.0 °F 93% 29.86 in 1.2 mi SSE 11.5 mph 20.7 mph 0.40 in Rain Rain
6:56 AM 59.0 °F 57.0 °F 93% 29.86 in 2.0 mi SSE 16.1 mph 23.0 mph 0.03 in Rain Heavy Rain
7:13 AM 59.0 °F 57.0 °F 93% 29.86 in 4.0 mi SSE 15.0 mph 21.9 mph 0.08 in Rain Rain
7:30 AM 59.0 °F 57.0 °F 93% 29.86 in 2.0 mi SSE 9.2 mph 20.7 mph 0.15 in Rain Heavy Rain
7:40 AM 59.0 °F 57.0 °F 93% 29.87 in 1.5 mi South 8.1 mph 20.7 mph 0.22 in Rain Heavy Rain
8:03 AM 60.1 °F 57.9 °F 93% 29.88 in 2.5 mi South 8.1 mph - 0.05 in Rain Rain
8:11 AM 60.1 °F 57.9 °F 93% 29.88 in 4.0 mi Variable 3.5 mph - 0.06 in Rain Rain
8:32 AM 61.0 °F 59.0 °F 93% 29.88 in 3.0 mi SSE 3.5 mph - 0.06 in Rain Light Rain
8:51 AM 61.0 °F 59.0 °F 93% 29.87 in 2.0 mi Calm Calm - 0.07 in Rain Light Rain
9:01 AM 61.0 °F 59.0 °F 93% 29.88 in 9.0 mi SE 3.5 mph - 0.00 in   Overcast
9:34 AM 62.1 °F 60.1 °F 93% 29.88 in 10.0 mi Calm Calm - 0.00 in   Overcast
9:46 AM 62.6 °F 59.0 °F 88% 29.88 in 8.0 mi Calm Calm - 0.00 in Rain Light Rain
9:51 AM 62.1 °F 57.9 °F 86% 29.88 in 8.0 mi Variable 4.6 mph - 0.00 in Rain Light Rain
10:51 AM 63.0 °F 57.9 °F 84% 29.88 in 10.0 mi Variable 4.6 mph - 0.00 in   Overcast
11:11 AM 64.0 °F 57.9 °F 80% 29.89 in 10.0 mi SW 4.6 mph - N/A   Scattered Clouds
11:51 AM 66.9 °F 57.0 °F 70% 29.89 in 10.0 mi Variable 4.6 mph - N/A   Scattered Clouds
12:02 PM 68.0 °F 57.9 °F 70% 29.90 in 10.0 mi Variable 6.9 mph - N/A   Mostly Cloudy
12:26 PM 68.0 °F 55.9 °F 65% 29.90 in 10.0 mi Variable 4.6 mph - N/A   Mostly Cloudy
12:51 PM 68.0 °F 50.0 °F 52% 29.90 in 10.0 mi Variable 6.9 mph - N/A   Partly Cloudy
1:51 PM 71.1 °F 50.0 °F 47% 29.89 in 10.0 mi WNW 8.1 mph - N/A   Clear
2:51 PM 72.0 °F 48.9 °F 44% 29.89 in 10.0 mi Variable 4.6 mph - N/A   Clear
3:51 PM 73.9 °F 46.0 °F 37% 29.89 in 10.0 mi Calm Calm - N/A   Clear
4:51 PM 73.9 °F 41.0 °F 30% 29.90 in 10.0 mi Variable 4.6 mph - N/A   Clear
6:51 PM 70.0 °F 37.9 °F 31% 29.94 in 10.0 mi Variable 5.8 mph - N/A   Clear
7:51 PM 66.0 °F 37.0 °F 34% 29.97 in 10.0 mi Calm Calm - N/A   Clear
9:51 PM 57.9 °F 37.9 °F 47% 30.01 in 10.0 mi WNW 3.5 mph - N/A   Clear
10:51 PM 57.0 °F 37.9 °F 49% 30.02 in 10.0 mi WNW 6.9 mph - N/A   Clear
11:51 PM 54.0 °F 37.9 °F 55% 30.02 in 10.0 mi Variable 3.5 mph - N/A   Clear